FW4822 Weather Reports


Display with metric or nautical units.
time (UTC)temp
F
wind
direction
speed
MPH
gust
MPH
rain 1hr
in
rain 24hr
in
rain mn
in
humidity
%
barometer
mb
20220627053501 69 234 2.0 8.0 0.01 0.22 0.01 94 1011.5
20220627053001 69 219 3.0 10.0 0.01 0.22 0.01 94 1011.6
20220627052501 69 213 3.0 10.0 0.01 0.22 0.01 94 1011.5
20220627052100 69 219 3.0 8.0 0.00 0.21 0.00 93 1011.5
20220627051605 69 216 0.0 8.0 0.00 0.21 0.00 93 1011.6
20220627051059 69 229 1.0 7.0 0.00 0.21 0.00 93 1011.8
20220627050559 69 248 3.0 10.0 0.00 0.21 0.00 93 1011.8
20220627050106 69 208 4.0 10.0 0.00 0.21 0.00 93 1011.8
20220627045557 69 209 3.0 9.0 0.00 0.21 0.00 93 1012.0
20220627045101 69 211 3.0 7.0 0.00 0.21 0.00 93 1011.9
20220627044556 69 233 3.0 7.0 0.00 0.21 0.00 93 1012.0
20220627043558 69 227 3.0 7.0 0.00 0.21 0.00 93 1012.0
20220627043054 69 206 3.0 9.0 0.00 0.21 0.00 93 1012.0
20220627042557 69 190 2.0 9.0 0.00 0.21 0.00 93 1012.1
20220627042051 68 236 2.0 7.0 0.00 0.21 0.21 93 1012.1
20220627041551 68 219 2.0 7.0 0.00 0.21 0.21 93 1012.2
20220627041051 68 237 2.0 7.0 0.00 0.21 0.21 93 1012.2
20220627040553 68 242 3.0 7.0 0.00 0.21 0.21 93 1012.2
20220627040051 68 255 1.0 5.0 0.00 0.21 0.21 92 1012.3
20220627035551 69 255 0.0 5.0 0.00 0.21 0.21 93 1012.2
20220627035050 69 227 0.0 5.0 0.00 0.21 0.21 92 1012.2
20220627034550 69 228 0.0 5.0 0.00 0.21 0.21 92 1012.3
20220627033556 69 201 2.0 7.0 0.00 0.21 0.21 92 1012.3
20220627033056 69 230 1.0 5.0 0.00 0.21 0.21 92 1012.4
20220627032556 69 213 0.0 5.0 0.00 0.21 0.21 92 1012.4
20220627032056 69 214 1.0 5.0 0.00 0.21 0.21 92 1012.3
20220627031556 69 223 1.0 7.0 0.00 0.21 0.21 92 1012.4
20220627031056 69 184 2.0 7.0 0.00 0.21 0.21 92 1012.4
20220627030559 69 199 0.0 5.0 0.00 0.21 0.21 92 1012.4
20220627030056 69 160 2.0 5.0 0.00 0.21 0.21 91 1012.5
20220627025556 69 249 0.0 5.0 0.00 0.21 0.21 91 1012.5
20220627025056 69 217 2.0 8.0 0.00 0.21 0.21 91 1012.5
20220627024555 69 260 2.0 8.0 0.00 0.21 0.21 91 1012.6
20220627024002 69 211 1.0 4.0 0.00 0.21 0.21 91 1012.6
20220627023502 69 224 1.0 4.0 0.00 0.21 0.21 91 1012.7
20220627023001 70 205 1.0 7.0 0.00 0.21 0.21 91 1012.7
20220627022500 70 206 1.0 7.0 0.00 0.21 0.21 91 1012.7
20220627022100 70 181 1.0 4.0 0.00 0.21 0.21 90 1012.8
20220627022001 70 181 2.0 4.0 0.00 0.21 0.21 90 1012.8
20220627021604 70 209 1.0 8.0 0.00 0.21 0.21 90 1012.8
20220627021103 70 212 2.0 8.0 0.00 0.21 0.21 90 1012.7
20220627020602 70 211 1.0 6.0 0.00 0.21 0.21 90 1012.8
20220627020101 70 182 1.0 6.0 0.00 0.21 0.21 90 1012.8
20220627015601 70 190 2.0 8.0 0.00 0.21 0.21 90 1012.8
20220627015100 70 249 3.0 9.0 0.00 0.21 0.21 90 1012.7
20220627014600 71 236 1.0 5.0 0.00 0.21 0.21 90 1012.8
20220627013547 71 253 2.0 5.0 0.00 0.21 0.21 90 1012.8
20220627013048 71 195 0.0 5.0 0.00 0.21 0.21 90 1012.8
20220627012546 71 143 1.0 4.0 0.00 0.21 0.21 90 1012.6
20220627012046 71 225 0.0 5.0 0.00 0.21 0.21 90 1012.6
20220627011548 71 224 1.0 5.0 0.00 0.21 0.21 90 1012.6
20220627011047 71 231 0.0 5.0 0.00 0.21 0.21 89 1012.7
20220627010546 71 213 2.0 6.0 0.00 0.21 0.21 89 1012.5
20220627010046 71 231 0.0 6.0 0.00 0.21 0.21 89 1012.5
20220627005547 72 241 0.0 12.0 0.00 0.21 0.21 89 1012.6
20220627005047 72 217 1.0 12.0 0.00 0.21 0.21 88 1012.6
20220627004016 72 202 1.0 9.0 0.00 0.21 0.21 87 1012.4
20220627003515 72 193 1.0 9.0 0.00 0.21 0.21 87 1012.5
20220627003013 73 223 0.0 4.0 0.00 0.21 0.21 86 1012.4
20220627002511 73 254 1.0 6.0 0.00 0.21 0.21 85 1012.3
20220627002011 73 170 1.0 6.0 0.00 0.21 0.21 85 1012.4
20220627001515 74 205 1.0 8.0 0.00 0.21 0.21 84 1012.5
20220627001011 74 219 2.0 10.0 0.00 0.21 0.21 84 1012.5
20220627000510 74 205 1.0 10.0 0.00 0.21 0.21 83 1012.3
20220627000010 74 253 3.0 8.0 0.00 0.21 0.21 84 1012.3
20220626235511 74 229 3.0 9.0 0.00 0.21 0.21 84 1012.2
20220626235010 74 200 1.0 9.0 0.00 0.21 0.21 84 1012.4
20220626234511 74 181 4.0 11.0 0.00 0.21 0.21 84 1012.3
20220626233555 74 240 1.0 8.0 0.00 0.21 0.21 85 1012.4
20220626233059 74 216 1.0 6.0 0.00 0.21 0.21 85 1012.3
20220626232554 74 191 1.0 8.0 0.00 0.21 0.21 85 1012.3
20220626232054 74 236 2.0 8.0 0.00 0.21 0.21 85 1012.3
20220626231601 74 220 2.0 7.0 0.00 0.21 0.21 85 1012.4
20220626231052 74 217 1.0 7.0 0.00 0.21 0.21 85 1012.4
20220626230552 74 231 4.0 11.0 0.00 0.21 0.21 84 1012.4
20220626230052 74 228 3.0 14.0 0.00 0.21 0.21 84 1012.4
20220626225553 74 232 5.0 14.0 0.00 0.21 0.21 84 1012.4
20220626225052 74 230 4.0 9.0 0.00 0.21 0.21 84 1012.3
20220626224554 74 190 3.0 8.0 0.00 0.21 0.21 85 1012.4
20220626223550 74 212 5.0 8.0 0.00 0.21 0.21 85 1012.3
20220626223103 74 227 2.0 13.0 0.00 0.21 0.21 85 1012.4
20220626222552 74 209 5.0 13.0 0.00 0.21 0.21 84 1012.4
20220626222048 74 211 4.0 16.0 0.00 0.21 0.21 84 1012.3
20220626221550 74 207 4.0 15.0 0.00 0.21 0.21 83 1012.3
20220626221050 74 195 7.0 15.0 0.00 0.21 0.21 83 1012.4
20220626220550 74 232 6.0 13.0 0.00 0.21 0.21 83 1012.4
20220626220048 73 190 4.0 11.0 0.00 0.21 0.21 83 1012.6
20220626215549 73 265 2.0 7.0 0.00 0.21 0.21 84 1012.5
20220626215048 73 212 4.0 8.0 0.00 0.21 0.21 84 1012.5
20220626214551 73 247 2.0 8.0 0.00 0.21 0.21 84 1012.7
20220626213546 74 226 2.0 8.0 0.00 0.21 0.21 86 1012.8
20220626213046 74 215 3.0 6.0 0.00 0.21 0.21 87 1012.7
20220626212546 74 226 1.0 7.0 0.00 0.21 0.21 87 1012.7
20220626212048 74 217 1.0 6.0 0.00 0.21 0.21 87 1012.6
20220626211546 73 202 1.0 5.0 0.00 0.21 0.21 88 1012.5
20220626211047 73 199 1.0 6.0 0.00 0.21 0.21 90 1012.3
20220626210546 72 213 2.0 6.0 0.00 0.21 0.21 91 1012.4
20220626210046 71 224 2.0 6.0 0.07 0.21 0.21 92 1012.4
20220626205548 70 244 2.0 5.0 0.17 0.21 0.21 92 1012.4
20220626205046 70 241 1.0 6.0 0.21 0.21 0.21 92 1012.5
20220626204546 70 216 3.0 6.0 0.21 0.21 0.21 92 1012.6
20220626203545 69 243 2.0 5.0 0.21 0.21 0.21 92 1012.4
20220626203048 69 242 3.0 7.0 0.21 0.21 0.21 91 1012.4
20220626202545 69 247 2.0 9.0 0.21 0.21 0.21 91 1012.5
20220626202045 68 238 4.0 9.0 0.21 0.21 0.21 91 1012.4
20220626201545 68 271 3.0 8.0 0.21 0.21 0.21 91 1012.6
20220626201045 68 251 2.0 10.0 0.21 0.21 0.21 91 1012.7
20220626200547 68 226 2.0 13.0 0.21 0.21 0.21 89 1012.8
20220626200044 70 244 5.0 18.0 0.17 0.17 0.17 85 1012.8
20220626195543 72 284 6.0 23.0 0.09 0.09 0.09 81 1012.7
20220626195043 77 257 8.0 23.0 0.00 0.00 0.00 71 1012.7
20220626194543 79 279 5.0 17.0 0.00 0.00 0.00 68 1012.5
20220626193547 79 192 8.0 16.0 0.00 0.00 0.00 67 1012.4
20220626193043 79 307 2.0 6.0 0.00 0.00 0.00 72 1012.4
20220626192542 80 154 0.0 6.0 0.00 0.00 0.00 73 1012.4
20220626192042 80 235 0.0 7.0 0.00 0.00 0.00 72 1012.4
20220626191542 80 165 1.0 9.0 0.00 0.00 0.00 72 1012.4
20220626191041 80 145 2.0 9.0 0.00 0.00 0.00 73 1012.6
20220626190542 79 192 1.0 8.0 0.00 0.00 0.00 71 1012.6
20220626190046 79 232 4.0 11.0 0.00 0.00 0.00 72 1012.8
20220626185543 80 191 3.0 11.0 0.00 0.00 0.00 70 1012.8
20220626185040 80 242 2.0 9.0 0.00 0.00 0.00 70 1012.7
20220626184540 81 205 3.0 9.0 0.00 0.00 0.00 69 1012.6
20220626183539 82 88 0.0 8.0 0.00 0.00 0.00 70 1012.6
20220626183039 81 274 2.0 8.0 0.00 0.00 0.00 70 1012.8
20220626182537 81 233 2.0 10.0 0.00 0.00 0.00 73 1013.0
20220626182036 80 231 0.0 10.0 0.00 0.00 0.00 72 1013.0
20220626181536 80 217 3.0 9.0 0.00 0.00 0.00 71 1013.1
20220626181036 80 227 2.0 10.0 0.00 0.00 0.00 70 1013.2
20220626180535 80 189 4.0 10.0 0.00 0.00 0.00 70 1013.3
20220626180041 81 217 2.0 8.0 0.00 0.00 0.00 69 1013.4
20220626175535 81 236 2.0 11.0 0.00 0.00 0.00 68 1013.6
20220626175035 81 270 5.0 13.0 0.00 0.00 0.00 64 1013.5
20220626174539 81 247 6.0 14.0 0.00 0.00 0.00 64 1013.4
20220626173536 82 218 3.0 12.0 0.00 0.00 0.00 66 1013.7
20220626173039 82 218 2.0 12.0 0.00 0.00 0.00 66 1013.9
20220626172535 82 281 2.0 14.0 0.00 0.00 0.00 64 1013.7
20220626172033 82 205 3.0 14.0 0.00 0.00 0.00 65 1013.9
20220626171535 82 196 3.0 19.0 0.00 0.00 0.00 67 1013.9
20220626171034 82 186 4.0 19.0 0.00 0.00 0.00 66 1014.1
20220626170536 82 242 3.0 11.0 0.00 0.00 0.00 66 1014.2
20220626170032 82 185 3.0 11.0 0.00 0.00 0.00 67 1014.3
20220626165530 81 292 4.0 11.0 0.00 0.00 0.00 67 1014.3
20220626165031 81 164 3.0 14.0 0.00 0.00 0.00 69 1014.4
20220626164541 80 272 2.0 14.0 0.00 0.00 0.00 67 1014.5
20220626163525 81 233 3.0 14.0 0.00 0.00 0.00 68 1014.8
20220626163025 80 228 1.0 12.0 0.00 0.00 0.00 70 1014.9
20220626162524 80 190 4.0 12.0 0.00 0.00 0.00 69 1015.0
20220626162026 80 184 4.0 11.0 0.00 0.00 0.00 69 1015.0
20220626161523 80 189 4.0 11.0 0.00 0.00 0.00 71 1015.1
20220626161022 80 228 4.0 11.0 0.00 0.00 0.00 72 1015.1
20220626160522 80 218 0.0 8.0 0.00 0.00 0.00 71 1015.2
20220626160024 80 225 1.0 8.0 0.00 0.00 0.00 69 1015.1
20220626155522 80 209 1.0 6.0 0.00 0.00 0.00 72 1015.1
20220626155024 79 189 1.0 4.0 0.00 0.00 0.00 71 1015.1
20220626154521 79 262 2.0 7.0 0.00 0.00 0.00 73 1015.1
20220626153520 80 234 3.0 7.0 0.00 0.00 0.00 70 1015.2
20220626153024 80 246 2.0 8.0 0.00 0.00 0.00 71 1015.2
20220626152519 80 155 2.0 7.0 0.00 0.00 0.00 72 1015.2
20220626152018 79 221 3.0 8.0 0.00 0.00 0.00 72 1015.3
20220626151517 79 205 1.0 6.0 0.00 0.00 0.00 75 1015.3
20220626151015 78 210 2.0 6.0 0.00 0.00 0.00 74 1015.4
20220626150514 78 231 0.0 7.0 0.00 0.00 0.00 74 1015.4
20220626150013 77 247 3.0 8.0 0.00 0.00 0.00 74 1015.4
20220626145512 77 219 4.0 8.0 0.00 0.00 0.00 75 1015.6
20220626145011 77 161 1.0 6.0 0.00 0.00 0.00 76 1015.6
20220626144513 77 232 1.0 7.0 0.00 0.00 0.00 77 1015.6
20220626143512 76 201 2.0 6.0 0.00 0.00 0.00 78 1015.8
20220626143009 76 281 1.0 6.0 0.00 0.00 0.00 78 1015.8
20220626142509 75 236 0.0 6.0 0.00 0.00 0.00 79 1015.9
20220626142006 75 199 0.0 8.0 0.00 0.00 0.00 79 1015.9
20220626141511 75 205 3.0 8.0 0.00 0.00 0.00 81 1015.9
20220626141006 74 217 2.0 8.0 0.00 0.00 0.00 80 1015.9
20220626140506 74 248 4.0 8.0 0.00 0.00 0.00 79 1015.9
20220626140004 74 219 2.0 6.0 0.00 0.00 0.00 80 1015.8
20220626135503 74 238 1.0 10.0 0.00 0.00 0.00 80 1015.9
20220626135003 74 230 4.0 10.0 0.00 0.00 0.00 79 1015.9
20220626134503 74 236 3.0 8.0 0.00 0.00 0.00 79 1016.0
20220626133500 73 221 1.0 8.0 0.00 0.00 0.00 81 1016.2
20220626133100 73 213 3.0 8.0 0.00 0.00 0.00 81 1016.2
20220626132604 73 173 3.0 8.0 0.00 0.00 0.00 82 1016.2
20220626132059 73 238 3.0 6.0 0.00 0.00 0.00 81 1016.2
20220626131558 72 184 1.0 6.0 0.00 0.00 0.00 81 1016.3
20220626131058 72 207 2.0 7.0 0.00 0.00 0.00 83 1016.3
20220626130556 72 229 2.0 7.0 0.00 0.00 0.00 82 1016.3
20220626130103 72 215 3.0 7.0 0.00 0.00 0.00 82 1016.4
20220626125556 71 225 3.0 7.0 0.00 0.00 0.00 82 1016.5
20220626125053 71 220 2.0 8.0 0.00 0.00 0.00 83 1016.5
20220626124554 71 235 4.0 8.0 0.00 0.00 0.00 82 1016.6
20220626123556 71 240 2.0 6.0 0.00 0.00 0.00 84 1016.6
20220626123052 70 215 3.0 6.0 0.00 0.00 0.00 83 1016.6
20220626122552 70 227 2.0 5.0 0.00 0.00 0.00 83 1016.6
20220626122052 70 215 0.0 2.0 0.00 0.00 0.00 84 1016.6
20220626121551 69 215 0.0 5.0 0.00 0.00 0.00 84 1016.8
20220626121051 69 215 2.0 5.0 0.00 0.00 0.00 83 1016.8
20220626120550 69 198 0.0 4.0 0.00 0.00 0.00 84 1016.8
20220626120051 69 187 1.0 4.0 0.00 0.00 0.00 84 1016.8
20220626115551 69 206 0.0 4.0 0.00 0.00 0.00 84 1016.9
20220626115050 68 206 0.0 2.0 0.00 0.00 0.00 84 1016.9
20220626114550 68 206 0.0 3.0 0.00 0.00 0.00 85 1016.9
20220626113549 67 209 0.0 2.0 0.00 0.00 0.00 86 1017.0
20220626113050 67 209 0.0 3.0 0.00 0.00 0.00 86 1017.0
20220626112548 67 204 0.0 2.0 0.00 0.00 0.00 86 1017.0
20220626112049 67 204 0.0 3.0 0.00 0.00 0.00 86 1017.1
20220626111549 67 204 0.0 4.0 0.00 0.00 0.00 86 1017.1
20220626111049 67 204 0.0 4.0 0.00 0.00 0.00 86 1017.1
20220626110548 66 219 1.0 3.0 0.00 0.00 0.00 86 1017.2
20220626110048 66 219 0.0 5.0 0.00 0.00 0.00 86 1017.1
20220626105549 66 220 1.0 5.0 0.00 0.00 0.00 86 1017.1
20220626105047 66 229 1.0 5.0 0.00 0.00 0.00 85 1017.2
20220626104550 66 214 0.0 5.0 0.00 0.00 0.00 85 1017.0
20220626103549 66 201 1.0 4.0 0.00 0.00 0.00 85 1017.0
20220626103049 66 218 0.0 3.0 0.00 0.00 0.00 86 1016.9
20220626102552 66 218 0.0 3.0 0.00 0.00 0.00 85 1017.0
20220626102048 65 219 0.0 2.0 0.00 0.00 0.00 86 1016.9
20220626101548 65 219 0.0 4.0 0.00 0.00 0.00 86 1016.9
20220626101048 65 219 0.0 4.0 0.00 0.00 0.00 86 1017.0
20220626100547 65 219 0.0 1.0 0.00 0.00 0.00 85 1016.9
20220626100054 65 219 0.0 2.0 0.00 0.00 0.00 85 1016.9
20220626095547 65 219 0.0 1.0 0.00 0.00 0.00 85 1016.9
20220626095051 65 219 0.0 2.0 0.00 0.00 0.00 85 1016.9
20220626094547 65 219 0.0 4.0 0.00 0.00 0.00 85 1016.9
20220626093550 65 219 0.0 3.0 0.00 0.00 0.00 85 1016.8
20220626093048 65 219 0.0 2.0 0.00 0.00 0.00 85 1016.8
20220626092552 65 219 0.0 2.0 0.00 0.00 0.00 84 1016.8
20220626092048 65 219 0.0 2.0 0.00 0.00 0.00 84 1016.7
20220626091545 65 222 0.0 4.0 0.00 0.00 0.00 84 1016.7
20220626091046 65 222 0.0 5.0 0.00 0.00 0.00 83 1016.7
20220626090550 65 209 0.0 5.0 0.00 0.00 0.00 83 1016.7
20220626090046 65 209 0.0 5.0 0.00 0.00 0.00 83 1016.7
20220626085545 65 209 1.0 4.0 0.00 0.00 0.00 83 1016.7
20220626085048 65 209 0.0 2.0 0.00 0.00 0.00 83 1016.6
20220626084545 65 209 0.0 1.0 0.00 0.00 0.00 83 1016.6
20220626083543 65 209 0.0 1.0 0.00 0.00 0.00 83 1016.6
20220626083048 65 209 0.0 2.0 0.00 0.00 0.00 83 1016.6
20220626082542 65 209 0.0 3.0 0.00 0.00 0.00 82 1016.7
20220626082046 66 209 0.0 3.0 0.00 0.00 0.00 82 1016.8
20220626081546 66 210 0.0 1.0 0.00 0.00 0.00 82 1016.8
20220626081039 66 210 0.0 1.0 0.00 0.00 0.00 82 1016.8
20220626080543 66 210 0.0 1.0 0.00 0.00 0.00 81 1016.9
20220626080043 66 210 0.0 1.0 0.00 0.00 0.00 81 1016.9
20220626075539 66 210 0.0 1.0 0.00 0.00 0.00 81 1016.9
20220626075037 66 210 0.0 1.0 0.00 0.00 0.00 81 1017.0
20220626074548 66 210 0.0 1.0 0.00 0.00 0.00 81 1017.0
20220626073541 67 210 0.0 2.0 0.00 0.00 0.00 80 1017.2
20220626073037 67 210 0.0 7.0 0.00 0.00 0.00 80 1017.3
20220626072537 67 210 0.0 7.0 0.00 0.00 0.00 80 1017.2
20220626072040 67 215 0.0 3.0 0.00 0.00 0.00 80 1017.2
20220626071535 67 215 0.0 3.0 0.00 0.00 0.00 79 1017.1
20220626071035 68 215 0.0 3.0 0.00 0.00 0.00 78 1017.2
20220626070534 68 215 1.0 3.0 0.00 0.00 0.00 77 1017.2
20220626070041 68 215 1.0 8.0 0.00 0.00 0.00 77 1017.3
20220626065537 68 212 2.0 8.0 0.00 0.00 0.00 77 1017.3
20220626065033 67 173 1.0 4.0 0.00 0.00 0.00 78 1017.2
20220626064534 67 194 0.0 2.0 0.00 0.00 0.00 78 1017.2
20220626063533 68 194 0.0 2.0 0.00 0.00 0.00 77 1017.3
20220626063033 68 194 0.0 3.0 0.00 0.00 0.00 77 1017.4
20220626062533 68 194 0.0 3.0 0.00 0.00 0.00 77 1017.3
20220626062033 68 194 0.0 4.0 0.00 0.00 0.00 77 1017.4
20220626061530 68 194 0.0 7.0 0.00 0.00 0.00 76 1017.5
20220626061030 68 162 0.0 7.0 0.00 0.00 0.00 76 1017.4
20220626060528 68 200 0.0 4.0 0.00 0.00 0.00 76 1017.5
20220626060033 68 200 0.0 4.0 0.00 0.00 0.00 76 1017.6
20220626055528 68 200 0.0 1.0 0.00 0.00 0.00 76 1017.7
20220626055028 68 200 0.0 1.0 0.00 0.00 0.00 76 1017.8
20220626054528 68 200 0.0 1.0 0.00 0.00 0.00 76 1017.7